[[{"header":{"parameterUnit":"m.s-1","parameterCategory":1,"la1":30.2991,"la2":30.254,"lo1":-89.0895,"lo2":-89.0444,"dy":0.0017,"dx":0.0017,"nx":28,"ny":28,"refTime":"2024-02-02T03:00:00:Z","depth":0,"parameterNumber":2,"parameterNumberName":"U-component_of_WINDS"},"data":[0,0,0,0,0,0,0,0,0,0,0,0,0,0,0,0,0,0,0,0,0,0,0,0,0,0,0,0,0,0,0,0,0,0,0,0,0,0,0,0,0,0,0,0,0,0,0,0,0,0,0,0,0,0,0,0,0,0,-0.9937,-0.9937,0,-0.9917,-0.9916,-0.9916,-0.9865,-0.9864,-0.9863,-0.9862,-0.9842,-0.9843,-0.9843,0,0,0,0,0,0,0,0,0,0,0,0,0,-0.9934,-0.9935,-0.9937,-0.9937,-0.9936,-0.9917,-0.9916,-0.9916,-0.9865,-0.9864,-0.9862,-0.9861,-0.9842,-0.9843,-0.9843,0,0,0,0,0,0,0,0,0,0,0,0,0,-0.9927,-0.9935,-0.9937,-0.9909,-0.9906,-0.9917,-0.9916,-0.9916,-0.9865,-0.9864,-0.9862,-0.9861,-0.9842,-0.9843,-0.9844,-0.9881,0,0,-0.9846,-0.9846,0,0,0,0,0,0,0,0,-0.9927,-0.9927,-0.9913,-0.9911,-0.9907,-0.9892,-0.9908,-0.9904,-0.9866,-0.9881,-0.9862,-0.986,-0.986,-0.9859,-0.9859,-0.988,-0.9879,-0.9846,-0.9846,-0.9847,-0.9847,0,0,0,0,0,0,0,-0.9928,-0.9928,-0.9929,-0.9913,-0.991,-0.9898,-0.9895,-0.9907,-0.988,-0.9879,-0.9876,-0.9874,-0.9858,-0.9859,-0.9858,-0.9879,-0.9846,-0.9847,-0.9847,-0.9847,-0.9931,-0.9932,0,0,0,0,0,0,-0.9932,-0.9928,-0.993,-0.9928,-0.9914,-0.9899,-0.9896,-0.9898,-0.988,-0.9875,-0.9875,-0.9871,-0.9858,-0.9858,-0.9857,-0.99,-0.9847,-0.9847,-0.9848,-0.9929,-0.9931,-0.9933,0,0,0,0,0,0,-0.9932,-0.9933,-0.993,-0.9927,-0.9926,-0.9901,-0.9904,-0.9899,-0.9899,-0.9876,-0.9872,-0.988,-0.9857,-0.9856,-0.9876,-0.9899,-0.9848,-0.9848,-0.9927,-0.9929,-0.9932,-0.9986,0,0,0,0,0,0,-0.9933,-0.9933,-0.9946,-0.9928,-0.9926,-0.9948,-0.9905,-0.99,-0.99,-0.9895,-0.988,-0.9876,-0.9855,-0.9875,-0.9876,-0.9899,-0.9849,-0.9924,-0.9928,-0.9931,-0.9982,-0.999,-0.9997,0,0,0,0,0,-0.9933,-0.9962,-0.9947,-0.9948,-0.9942,-0.9949,-0.9949,-0.9924,-0.9902,-0.9916,-0.9902,-0.9876,-0.9896,-0.9877,-0.9878,-0.9902,-0.9923,-0.9927,-0.9931,-0.9979,-0.9989,-0.9997,0,0,0,0,0,0,-0.9984,-0.9959,-0.9942,-0.9967,-0.9961,-0.9941,-0.9957,-0.9935,-0.9936,-0.9931,-0.9901,-0.9898,-0.9922,-0.9914,-0.9893,-0.9938,-0.9906,-0.991,-0.9942,-0.9951,-0.9958,-0.9959,-0.985,0,0,0,0,0,-0.9999,-1.0006,-0.9984,-1.0008,-1.0006,-0.9982,-0.9984,-0.9966,-0.9959,-0.9956,-0.9943,-0.9937,-0.9943,-0.9946,-0.995,-0.9981,-0.9978,-0.9998,-1.0006,-1.0012,-1.0016,-1.0033,-1.0042,-0.9946,-0.9946,-0.9946,0,0,-1.0028,-1.0015,-1.0022,-1.0018,-1.0011,-1.002,-0.998,-0.9991,-0.9998,-0.9958,-0.9975,-0.9966,-0.9958,-0.9983,-0.9994,-0.9977,-1.0042,-1.0017,-1.0022,-1.0023,-1.0038,-1.0047,-1.0055,-0.9949,-0.9948,-0.9948,0,0,-1.0086,-1.0077,-1.0096,-1.009,-1.008,-1.0065,-1.007,-1.0053,-1.0046,-1.0062,-1.0033,-1.0041,-1.005,-1.0046,-1.0045,-1.0104,-1.0081,-1.0106,-1.0145,-1.0162,-1.017,-1.0176,-1.0198,-1.0206,-1.011,-1.011,-1.011,0,-1.0124,-1.0135,-1.0109,-1.0122,-1.0122,-1.0086,-1.0106,-1.0102,-1.0094,-1.0095,-1.0077,-1.0088,-1.008,-1.0105,-1.012,-1.012,-1.0125,-1.0107,-1.0171,-1.0177,-1.0183,-1.0203,-1.0211,-1.0113,-1.0113,-1.0113,-1.0112,0,-1.0183,-1.0191,-1.0208,-1.0201,-1.0203,-1.022,-1.0197,-1.0202,-1.0185,-1.0172,-1.019,-1.0179,-1.018,-1.0185,-1.0168,-1.0208,-1.0198,-1.0176,-1.0143,-1.0196,-1.0214,-1.0221,-1.0118,-1.0117,-1.0116,-1.0115,0,0,-1.0271,-1.025,-1.0257,-1.0254,-1.0241,-1.0248,-1.0264,-1.0265,-1.027,-1.0266,-1.0279,-1.0289,-1.0269,-1.0268,-1.025,-1.0265,-1.0313,-1.0241,-1.024,-1.0255,-1.0357,-1.0374,-1.0383,-1.0298,-1.03,-1.0301,-1.0358,0,-1.0325,-1.035,-1.0328,-1.0357,-1.0365,-1.0333,-1.0347,-1.0341,-1.033,-1.0336,-1.0324,-1.0331,-1.0304,-1.0303,-1.0317,-1.0304,-1.0333,-1.03,-1.031,-1.0311,-1.0313,-1.0392,-1.0409,-1.0464,-1.0365,-1.0366,-1.0367,0,-1.0392,-1.0391,-1.0421,-1.0408,-1.0411,-1.0423,-1.0423,-1.0429,-1.0423,-1.0414,-1.0414,-1.0393,-1.0409,-1.0378,-1.0399,-1.0377,-1.0381,-1.0376,-1.0377,-1.0376,-1.0342,-1.0394,-1.048,-1.0489,-1.0378,-1.0377,-1.0376,0,-1.0453,-1.046,-1.0479,-1.0478,-1.0463,-1.0472,-1.0467,-1.0459,-1.0461,-1.0462,-1.0463,-1.0466,-1.0467,-1.047,-1.0451,-1.043,-1.0475,-1.0442,-1.0469,-1.0469,-1.0479,-1.0478,-1.0567,-1.0482,-1.0482,-1.0482,-1.0481,0,-1.0516,-1.0536,-1.0507,-1.0518,-1.054,-1.0515,-1.0538,-1.0529,-1.0523,-1.0533,-1.0506,-1.0516,-1.049,-1.0498,-1.0483,-1.0504,-1.0505,-1.0499,-1.0494,-1.0501,-1.0501,-1.0502,-1.0497,-1.0484,-1.0483,-1.0483,-1.0483,0,-1.0587,-1.0569,-1.0587,-1.0572,-1.0569,-1.0586,-1.0573,-1.0584,-1.0572,-1.0585,-1.0587,-1.0568,-1.0576,-1.0557,-1.0563,-1.0553,-1.0583,-1.0573,-1.0584,-1.0581,-1.0609,-1.0606,-1.07,-1.0711,-1.062,-1.0621,-1.0622,0,-1.0628,-1.0643,-1.0629,-1.0634,-1.063,-1.0638,-1.0641,-1.0618,-1.0621,-1.0617,-1.0628,-1.0634,-1.0638,-1.0653,-1.064,-1.0645,-1.0634,-1.0667,-1.0635,-1.0641,-1.0635,-1.0634,-1.0636,-1.0673,-1.0675,-1.0675,-1.0676,0,-1.0703,-1.0693,-1.0698,-1.07,-1.0703,-1.0704,-1.0702,-1.0708,-1.0684,-1.069,-1.0698,-1.0701,-1.0707,-1.0714,-1.0716,-1.0711,-1.069,-1.0687,-1.0693,-1.0699,-1.0706,-1.0703,-1.0602,-1.0684,-1.0684,-1.0683,-1.0682,-1.0682,-1.076,-1.0772,-1.0765,-1.0771,-1.0768,-1.0767,-1.0777,-1.0766,-1.0772,-1.0775,-1.0762,-1.0773,-1.0768,-1.0769,-1.0767,-1.0776,-1.0761,-1.077,-1.0773,-1.0775,-1.078,-1.0705,-1.0776,-1.0776,-1.0776,-1.0775,-1.0775,0,-1.0834,-1.0828,-1.0834,-1.0833,-1.0838,-1.0818,-1.0816,-1.0822,-1.0832,-1.0829,-1.0834,-1.0844,-1.0851,-1.0839,-1.0844,-1.0854,-1.0845,-1.0856,-1.0855,-1.0854,-1.0792,-1.0786,-1.0864,-1.0864,-1.0864,-1.0864,-1.0864,-1.0863,-1.0872,-1.0891,-1.0881,-1.0899,-1.0893,-1.0904,-1.0905,-1.0905,-1.0902,-1.0915,-1.092,-1.0912,-1.0906,-1.0911,-1.0917,-1.0914,-1.0917,-1.0932,-1.0925,-1.0867,-1.0858,-1.085,-1.0844,-1.0933,-1.0933,-1.0986,-1.0986,-1.0987]},{"header":{"parameterUnit":"m.s-1","parameterCategory":1,"la1":30.2991,"la2":30.254,"lo1":-89.0895,"lo2":-89.0444,"dy":0.0017,"dx":0.0017,"nx":28,"ny":28,"refTime":"2024-02-02T03:00:00:Z","depth":0,"parameterNumber":3,"parameterNumberName":"V-component_of_WINDS"},"data":[0,0,0,0,0,0,0,0,0,0,0,0,0,0,0,0,0,0,0,0,0,0,0,0,0,0,0,0,0,0,0,0,0,0,0,0,0,0,0,0,0,0,0,0,0,0,0,0,0,0,0,0,0,0,0,0,0,0,0.8586,0.8585,0,0.8524,0.8524,0.8523,0.8493,0.8493,0.8493,0.8493,0.8425,0.8424,0.8422,0,0,0,0,0,0,0,0,0,0,0,0,0,0.8675,0.8674,0.8586,0.8585,0.8584,0.8524,0.8523,0.8523,0.8493,0.8493,0.8493,0.8493,0.8426,0.8424,0.8422,0,0,0,0,0,0,0,0,0,0,0,0,0,0.8627,0.8673,0.8586,0.8562,0.856,0.8525,0.8523,0.8522,0.8493,0.8493,0.8493,0.8493,0.8427,0.8424,0.8421,0.8404,0,0,0.8413,0.8412,0,0,0,0,0,0,0,0,0.863,0.8624,0.8567,0.8564,0.8561,0.8516,0.853,0.8482,0.8493,0.8518,0.8493,0.8493,0.8455,0.845,0.8439,0.8401,0.8398,0.8413,0.8411,0.841,0.8409,0,0,0,0,0,0,0,0.8633,0.8626,0.8561,0.8566,0.8562,0.8554,0.8547,0.8521,0.8487,0.8516,0.8514,0.8507,0.8454,0.8441,0.8437,0.8397,0.8413,0.8411,0.8409,0.8408,0.8342,0.8342,0,0,0,0,0,0,0.8641,0.8629,0.8563,0.856,0.8596,0.8552,0.8545,0.8531,0.8487,0.8481,0.8507,0.8506,0.8446,0.844,0.8434,0.8411,0.841,0.8408,0.8406,0.8342,0.8342,0.8342,0,0,0,0,0,0,0.8643,0.8635,0.8566,0.8594,0.8584,0.8551,0.8535,0.8529,0.8517,0.8481,0.8474,0.8501,0.8446,0.8438,0.8412,0.8408,0.8406,0.8404,0.8342,0.8342,0.8342,0.8365,0,0,0,0,0,0,0.8646,0.8636,0.863,0.8594,0.8583,0.8546,0.8535,0.8528,0.8513,0.851,0.8473,0.8467,0.8445,0.8416,0.8409,0.8405,0.8402,0.8343,0.8342,0.8342,0.8364,0.8365,0.8366,0,0,0,0,0,0.8649,0.8638,0.863,0.8622,0.8574,0.8546,0.8539,0.8516,0.8512,0.8505,0.8482,0.8468,0.841,0.8414,0.8406,0.84,0.8343,0.8342,0.8342,0.8364,0.8365,0.8366,0,0,0,0,0,0,0.8672,0.8632,0.8623,0.86,0.8577,0.8541,0.8531,0.8518,0.8494,0.8493,0.8463,0.8455,0.8432,0.8413,0.8418,0.8381,0.8375,0.8373,0.8394,0.8395,0.8396,0.8401,0.8399,0,0,0,0,0,0.8675,0.8656,0.8622,0.8604,0.8593,0.8564,0.8551,0.8535,0.8509,0.8498,0.8473,0.8448,0.8424,0.8409,0.8385,0.8362,0.8353,0.8354,0.8355,0.8356,0.8355,0.8342,0.8342,0.8341,0.8341,0.8341,0,0,0.8679,0.8655,0.8645,0.8608,0.8588,0.8569,0.8556,0.8535,0.852,0.8495,0.8469,0.845,0.842,0.8396,0.8383,0.8379,0.8353,0.8356,0.8357,0.8355,0.8341,0.8342,0.8342,0.8341,0.8341,0.8341,0,0,0.8677,0.8658,0.8641,0.8622,0.8593,0.8574,0.857,0.8537,0.8524,0.8498,0.8479,0.846,0.842,0.8399,0.8383,0.8376,0.8361,0.8369,0.8374,0.8362,0.8362,0.8362,0.8359,0.8358,0.8367,0.8367,0.8367,0,0.8686,0.8657,0.8634,0.8615,0.86,0.8579,0.8562,0.8544,0.8507,0.8497,0.8493,0.8443,0.8421,0.8392,0.839,0.8378,0.8372,0.8372,0.8364,0.8364,0.8363,0.836,0.8359,0.8369,0.8368,0.8368,0.8368,0,0.8669,0.8649,0.864,0.8607,0.8591,0.8573,0.8547,0.8533,0.8519,0.8501,0.8475,0.8448,0.8419,0.8411,0.8396,0.838,0.8378,0.837,0.8363,0.8365,0.8361,0.836,0.837,0.837,0.8369,0.8369,0,0,0.8678,0.8636,0.8632,0.8618,0.8585,0.8568,0.855,0.8523,0.8511,0.8487,0.847,0.8438,0.843,0.8412,0.8395,0.8385,0.8381,0.8377,0.8376,0.8379,0.8361,0.8368,0.8367,0.8372,0.8372,0.8372,0.8364,0,0.8672,0.8639,0.8619,0.8593,0.8574,0.8555,0.8538,0.8516,0.8498,0.8479,0.8459,0.8437,0.8428,0.8418,0.8406,0.8384,0.8377,0.8384,0.8355,0.8354,0.8363,0.8365,0.8371,0.8365,0.8363,0.8362,0.8362,0,0.8659,0.8638,0.8611,0.8582,0.8573,0.8559,0.8533,0.8515,0.8489,0.8477,0.8459,0.8442,0.8421,0.8417,0.8387,0.8393,0.838,0.8367,0.8367,0.8362,0.8358,0.836,0.8363,0.8362,0.836,0.836,0.836,0,0.8669,0.8633,0.8613,0.8601,0.8566,0.8556,0.8541,0.8516,0.8501,0.8478,0.8468,0.8443,0.8429,0.8409,0.8386,0.8385,0.8359,0.8353,0.8348,0.8348,0.8342,0.8343,0.8342,0.8335,0.8335,0.8335,0.8335,0,0.8663,0.8647,0.8617,0.8604,0.8586,0.8563,0.8546,0.8528,0.8506,0.8489,0.8471,0.8455,0.8426,0.8407,0.8389,0.8367,0.836,0.835,0.8345,0.8351,0.8352,0.8341,0.8341,0.8335,0.8335,0.8335,0.8335,0,0.867,0.8649,0.8626,0.8595,0.8587,0.8575,0.8548,0.8535,0.8517,0.8496,0.849,0.8462,0.8438,0.8414,0.8381,0.8369,0.8348,0.8342,0.8357,0.8354,0.8351,0.8351,0.8342,0.834,0.8335,0.8336,0.8336,0,0.8668,0.8655,0.8624,0.8613,0.8598,0.8579,0.8565,0.8542,0.8528,0.8499,0.8489,0.8464,0.8443,0.8407,0.8382,0.8358,0.835,0.8349,0.8346,0.8353,0.835,0.8351,0.8349,0.835,0.835,0.835,0.835,0,0.8666,0.8656,0.8637,0.8615,0.8598,0.8579,0.8559,0.855,0.8523,0.8508,0.8485,0.8469,0.8437,0.8413,0.8386,0.8369,0.8355,0.8352,0.8349,0.8355,0.8364,0.8359,0.8359,0.8351,0.8351,0.8351,0.8351,0.8351,0.8667,0.8656,0.8633,0.8612,0.8595,0.8577,0.8564,0.8545,0.8526,0.8499,0.8487,0.8463,0.8438,0.8401,0.8385,0.8365,0.8361,0.8358,0.8357,0.8356,0.8357,0.8368,0.836,0.836,0.836,0.836,0.836,0,0.8664,0.8649,0.863,0.8604,0.8588,0.8578,0.8556,0.8542,0.8523,0.8501,0.8482,0.8455,0.8432,0.8407,0.8382,0.8372,0.8365,0.8366,0.8366,0.8363,0.8362,0.8367,0.8372,0.8372,0.8372,0.8372,0.8372,0.8372,0.866,0.8641,0.8629,0.8601,0.8585,0.8563,0.8551,0.8534,0.8518,0.8489,0.8471,0.8455,0.8432,0.8406,0.8384,0.8377,0.8369,0.8372,0.8363,0.8363,0.8362,0.8362,0.8366,0.837,0.837,0.8365,0.8365,0.8365]}]]